User: anonymous   Login
Location: Allentsteig
(48.6833°N, 15.3167°E)
Time: 00:26:40
(UTC+00:00)
Language:

Cosmos 2298 Rocket - Orbit

View from above orbital plane
View from above orbital plane
View from above satellite
View from above satellite

Ground track
Ground track

The orbit data is extracted from the following two-line orbital elements,

1 23432U 94083B   20336.53054491  .00000013  00000-0  14316-4 0  9996
2 23432  74.0305 147.6311 0004600  40.9524  13.4056 14.33546862357334
Epoch (UTC): 01 December 2020 12:43:59
Eccentricity: 0.0004600
inclination: 74.0305°
perigee height: 776 km
apogee height: 783 km
right ascension of ascending node: 147.6311°
argument of perigee: 40.9524°
revolutions per day: 14.33546862
mean anomaly at epoch: 13.4056°
orbit number at epoch: 35733

The dashed part of the orbit path shows where the satellite is in the earth's shadow,  

DLR